Flag for Russia Weather past 2 weeks in Krasnodar, Russia

43 °F

Passing clouds.

Feels Like: 36 °F
Forecast: 46 / 59 °F
Wind: 13 mph from East

Location: Krasnodar Airport

Current Time: Nov 27, 2015 at 6:20:57 AM

Latest Report: Nov 27, 2015 at 6:00 AM

Visibility: 6 mi

Pressure: 29.95 "Hg

Humidity: 93%

Dew point: 41 °F

Location of KrasnodarLocation

Historic Weather in Krasnodar — Graph


Krasnodar temperature yesterday

Maximum temperature yesterday: 55 °F (at 5:30 AM)
Minimum temperature yesterday: 46 °F (at 3:00 AM)
Average temperature yesterday: 51 °F

Past Weeks' High & Low Weather Summary

High73 °F (Nov 23, 1:00 PM)100% (Nov 15, 8:30 AM)30.33 "Hg (Nov 15, 8:30 AM)
Low30 °F (Nov 18, 5:00 AM)25% (Nov 23, 1:00 PM)29.53 "Hg (Nov 16, 9:30 PM)
Average50 °F70%30.00 "Hg
* Reported Nov 12 5:00 AM — Nov 27 5:00 AM, Krasnodar, Weather by CustomWeather, © 2015

Note: Actual official high and low records may vary slightly from our data, if they occured in-between our weather recording intervals... More about our weather records


Krasnodar weather history for previous 24 hours

Time TempWeatherWind HumidityBarometerVisibility
5:00 AM
Fri, Nov 27
45 °FPassing clouds.13 mph87%29.95 "HgN/A
4:30 AM45 °FPassing clouds.10 mph93%29.95 "HgN/A
4:00 AM45 °FPartly cloudy.10 mph93%29.95 "HgN/A
3:30 AM45 °FSprinkles. Partly cloudy.8 mph93%29.95 "Hg6 mi
3:00 AM45 °FSprinkles. Partly cloudy.10 mph93%29.95 "Hg5 mi
2:30 AM46 °FPassing clouds.10 mph93%29.92 "HgN/A
1:30 AM46 °FPassing clouds.10 mph93%29.92 "HgN/A
1:00 AM46 °FPassing clouds.10 mph93%29.92 "HgN/A
12:30 AM46 °FPartly cloudy.10 mph93%29.92 "HgN/A
11:30 PM
Thu, Nov 26
48 °FClear.8 mph87%29.92 "Hg10 mi
11:00 PM48 °FClear.8 mph87%29.92 "Hg10 mi
10:30 PM48 °FClear.10 mph87%29.92 "HgN/A
10:00 PM48 °FClear.8 mph94%29.89 "Hg6 mi
9:30 PM48 °FFog.3 mph94%29.89 "Hg2 mi
9:00 PM48 °FFog.3 mph94%29.89 "Hg2 mi
8:30 PM50 °FFog.6 mph88%29.86 "Hg2 mi
8:00 PM48 °FFog.6 mph94%29.86 "Hg3 mi
7:30 PM48 °FFog.6 mph94%29.86 "Hg3 mi
7:00 PM48 °FFog.6 mph94%29.86 "Hg3 mi
6:30 PM48 °FFog.3 mph87%29.86 "Hg3 mi
6:00 PM48 °FClear.6 mph94%29.83 "Hg4 mi
5:30 PM48 °FFog.6 mph87%29.83 "Hg3 mi
5:00 PM52 °FPassing clouds.6 mph82%29.83 "Hg4 mi
4:30 PM54 °FPassing clouds.8 mph82%29.83 "Hg5 mi
4:00 PM54 °FPartly sunny.8 mph82%29.80 "Hg6 mi
3:30 PM54 °FPartly sunny.8 mph82%29.83 "HgN/A
3:00 PM55 °FScattered clouds.8 mph82%29.80 "HgN/A
2:30 PM55 °FScattered clouds.8 mph82%29.80 "Hg6 mi
2:00 PM55 °FScattered clouds.8 mph82%29.80 "HgN/A
1:30 PM55 °FScattered clouds.8 mph77%29.80 "Hg6 mi
1:00 PM55 °FScattered clouds.8 mph82%29.80 "Hg6 mi
12:30 PM54 °FLow clouds.8 mph88%29.83 "Hg5 mi
12:00 PM55 °FPartly sunny.8 mph82%29.83 "Hg6 mi
11:30 AM54 °FScattered clouds.13 mph88%29.80 "Hg4 mi
11:00 AM55 °FSunny.8 mph88%29.83 "Hg10 mi
10:30 AM55 °FSunny.6 mph77%29.80 "Hg10 mi
10:00 AM55 °FPassing clouds.3 mph72%29.80 "HgN/A
9:30 AM55 °FSunny.6 mph67%29.80 "Hg10 mi
9:00 AM52 °FSunny.8 mph72%29.80 "Hg10 mi
8:30 AM54 °FClear.6 mph63%29.80 "Hg10 mi
8:00 AM50 °FClear.6 mph67%29.80 "Hg10 mi
7:30 AM50 °FClear.8 mph67%29.80 "Hg10 mi
6:30 AM50 °FClear.8 mph67%29.80 "Hg10 mi
6:00 AM54 °FClear.8 mph58%29.80 "Hg10 mi
Weather by CustomWeather, © 2015

See weather overviewHow to use our weather pages